Regional Weather Roundup
Issued by NWS

Home | Current Version | Previous Version | Graphics & Text | Print | Product List | Glossary On
Versions: 1 2 3 4 5 6 7 8 9 10 11 12 13 14 15 16 17 18 19 20 21 22 23 24 25 26 27 28 29 30 31 32 33 34 35 36 37 38 39 40 41 42 43 44 45 46 47 48 49 50
551
ASUS43 KFSD 201810
RWRSD

WEATHER ROUNDUP FOR SOUTH DAKOTA
NATIONAL WEATHER SERVICE SIOUX FALLS SD
100 PM CDT WED SEP 20 2017

NOTE: "FAIR" INDICATES FEW OR NO CLOUDS BELOW 12,000 FEET WITH NO
SIGNIFICANT WEATHER AND/OR OBSTRUCTIONS TO VISIBILITY.


SDZ001>005-009-010-012>017-201900-
NORTHWEST AND NORTH CENTRAL SOUTH DAKOTA

CITY           SKY/WX    TMP DP  RH WIND       PRES   REMARKS
BUFFALO          N/A     65  29  25 SW24G31   29.67F
FAITH            N/A     63  36  36 SW13      29.78
MOBRIDGE       SUNNY     68  42  38 S13       29.76F
$$

SDZ012>016-024>037-041>051-057-063-072>074-201900-
SOUTHWEST AND SOUTH CENTRAL SOUTH DAKOTA

CITY           SKY/WX    TMP DP  RH WIND       PRES   REMARKS
RAPID CTY ARPT SUNNY     66  27  22 W15       29.81F
PIERRE         SUNNY     69  37  30 SW15G24   29.79F
CUSTER         SUNNY     55  24  30 W21G29    29.85F
ELLSWORTH AFB  SUNNY     65  28  24 SW15      29.80
PHILIP         SUNNY     69  32  25 SW10      29.80F
SPEARFISH      FAIR      61  25  25 W16G28    29.79F
WINNER         FAIR      70  39  32 SW16      29.84F
$$

SDZ004>011-016>023-039-040-201900-
NORTHEAST SOUTH DAKOTA

CITY           SKY/WX    TMP DP  RH WIND       PRES   REMARKS
ABERDEEN       SUNNY     67  39  35 SW12      29.81R
WATERTOWN      SUNNY     65  44  46 SW10      29.83R
BROOKINGS      SUNNY     65  46  50 W10       29.86R
SISSETON         N/A     68  43  40 W14       29.80R
$$

SDZ017-020-022-023-036>040-048>070-201900-
SOUTHEAST SOUTH DAKOTA

CITY           SKY/WX    TMP DP  RH WIND       PRES   REMARKS
SIOUX FALLS    MOSUNNY   69  51  52 W9        29.87R
HURON          SUNNY     69  42  37 SW8       29.84S
CHAMBERLAIN    SUNNY     71  42  35 SW10      29.84F
MITCHELL       SUNNY     69  39  33 W9        29.86S
YANKTON        SUNNY     67  47  48 W6        29.88S
$$

ABBREVIATIONS USED IN REMARKS
   TC - TEMPERATURE IN CELSIUS
  WCI - WIND CHILL INDEX
   HX - HEAT INDEX
  VSB - VISIBILITY





USA.gov is the U.S. government's official web portal to all federal, state and local government web resources and services.